DL9GJ-4 Weather Reports


time (UTC)temp
C
wind
direction
speed
KPH
gust
KPH
rain 1hr
cm
rain 24hr
cm
rain mn
cm
humidity
%
barometer
mb
20260506235327 8 192 4.8 4.8 0.00 0.08 0.00 51 1009.0
20260506234725 8 188 4.8 6.4 0.00 0.08 0.00 52 1009.0
20260506234121 8 208 4.8 4.8 0.00 0.08 0.00 53 1009.0
20260506233515 8 189 4.8 4.8 0.00 0.08 0.00 53 1009.0
20260506232913 8 191 4.8 6.4 0.00 0.08 0.00 55 1009.0
20260506231708 7 157 4.8 4.8 0.00 0.08 0.00 57 1009.0
20260506231104 7 185 4.8 4.8 0.00 0.08 0.00 55 1009.0
20260506230500 7 193 0.0 0.0 0.00 0.08 0.00 55 1009.0
20260506225855 7 192 3.2 4.8 0.00 0.08 0.00 54 1009.0
20260506225253 7 191 4.8 4.8 0.00 0.08 0.00 54 1009.0
20260506222843 8 193 4.8 6.4 0.00 0.08 0.00 52 1009.0
20260506222242 8 183 3.2 3.2 0.00 0.08 0.00 50 1009.0
20260506221637 8 183 3.2 4.8 0.00 0.08 0.00 50 1009.0
20260506215823 8 193 0.0 3.2 0.00 0.28 0.00 50 1009.0
20260506214614 8 188 8.0 8.0 0.00 0.28 0.00 50 1009.0
20260506214024 8 196 4.8 8.0 0.00 0.28 0.00 51 1009.0
20260506214012 8 196 4.8 8.0 0.00 0.28 0.00 51 1009.0
20260506212807 8 177 4.8 4.8 0.00 0.28 0.00 53 1009.0
20260506212206 8 171 6.4 6.4 0.00 0.28 0.00 53 1009.0
20260506211604 8 222 4.8 8.0 0.00 0.28 0.00 53 1009.0
20260506210958 8 195 8.0 8.0 0.00 0.28 0.00 53 1009.0
20260506210356 8 193 3.2 8.0 0.00 0.28 0.00 53 1009.0
20260506205752 8 201 8.0 8.0 0.00 0.28 0.00 52 1009.0
20260506203952 8 197 6.4 8.0 0.00 0.28 0.00 53 1009.0
20260506202149 8 184 6.4 8.0 0.00 0.28 0.00 56 1009.0
20260506200950 8 149 6.4 6.4 0.00 0.28 0.00 56 1009.0
20260506200350 8 216 6.4 6.4 0.00 0.28 0.00 56 1009.0
20260506195750 8 204 4.8 4.8 0.00 0.28 0.00 55 1009.0
20260506195150 8 221 4.8 4.8 0.00 0.28 0.00 54 1009.0
20260506194549 8 187 6.4 6.4 0.00 0.28 0.00 54 1009.0
20260506193948 8 228 4.8 8.0 0.00 0.28 0.00 53 1009.0
20260506193345 8 164 6.4 6.4 0.00 0.28 0.00 53 1009.0
20260506192744 8 193 6.4 9.7 0.00 0.28 0.00 53 1009.0
20260506192140 8 221 8.0 8.0 0.00 0.28 0.00 54 1008.0
20260506191539 8 191 8.0 8.0 0.00 0.28 0.00 53 1008.0
20260506190332 8 222 4.8 8.0 0.00 0.28 0.00 54 1008.0
20260506185728 8 174 6.4 8.0 0.00 0.28 0.00 54 1008.0
20260506185125 8 231 4.8 6.4 0.00 0.28 0.00 54 1008.0
20260506184522 8 198 4.8 4.8 0.00 0.28 0.00 54 1008.0
20260506183919 8 189 6.4 6.4 0.00 0.28 0.00 54 1008.0
20260506183318 8 195 6.4 8.0 0.00 0.28 0.00 54 1008.0
20260506182714 8 171 6.4 6.4 0.00 0.28 0.00 54 1008.0
20260506182113 8 220 6.4 6.4 0.00 0.28 0.00 53 1008.0
20260506175108 8 223 4.8 8.0 0.00 0.28 0.00 50 1007.0
20260506173259 8 179 4.8 4.8 0.00 0.28 0.00 50 1007.0
20260506172655 8 192 8.0 9.7 0.00 0.28 0.00 49 1007.0
20260506170854 9 244 8.0 8.0 0.00 0.28 0.00 50 1007.0
20260506170254 9 238 4.8 11.3 0.00 0.28 0.00 50 1007.0
20260506165653 9 225 4.8 4.8 0.00 0.28 0.00 49 1007.0
20260506163854 10 263 0.0 3.2 0.00 0.28 0.00 54 1007.0
20260506162654 9 224 4.8 6.4 0.00 0.28 0.00 55 1007.0
20260506160850 8 197 6.4 8.0 0.00 0.28 0.00 53 1007.0
20260506160250 8 243 8.0 8.0 0.00 0.28 0.00 52 1007.0
20260506155646 8 192 6.4 6.4 0.00 0.28 0.00 51 1007.0
20260506152639 8 157 8.0 8.0 0.00 0.28 0.00 53 1007.0
20260506145620 8 215 9.7 9.7 0.00 0.28 0.00 53 1007.0
20260506145051 8 198 9.7 11.3 0.00 0.28 0.00 50 1006.0
20260506145017 8 198 9.7 11.3 0.00 0.28 0.00 50 1006.0
20260506143816 9 212 8.0 16.1 0.00 0.28 0.00 47 1005.0
20260506143212 10 188 12.9 14.5 0.00 0.28 0.00 43 1005.0
20260506142021 14 213 4.8 4.8 0.00 0.28 0.00 35 1004.0
20260506141403 14 207 0.0 8.0 0.00 0.28 0.00 33 1004.0
20260506140159 15 206 8.0 8.0 0.00 0.28 0.00 29 1004.0
20260506133150 14 98 3.2 4.8 0.00 0.28 0.00 51 1004.0
20260506131348 12 98 0.0 0.0 0.00 0.28 0.00 45 1004.0
20260506130148 11 98 0.0 6.4 0.00 0.28 0.00 41 1005.0
20260506124950 11 211 3.2 3.2 0.00 0.28 0.00 40 1005.0
20260506124349 12 211 0.0 0.0 0.00 0.28 0.00 36 1005.0
20260506123750 12 211 4.8 4.8 0.00 0.28 0.00 35 1005.0
20260506123146 12 211 4.8 4.8 0.00 0.28 0.00 35 1005.0
20260506120735 14 281 0.0 0.0 0.00 0.28 0.00 28 1004.0
20260506120133 14 281 0.0 0.0 0.00 0.28 0.00 30 1004.0
20260506114930 15 281 0.0 0.0 0.00 0.28 0.00 30 1004.0
20260506113725 15 281 0.0 0.0 0.00 0.28 0.00 29 1004.0
20260506113124 15 281 3.2 4.8 0.00 0.28 0.00 31 1004.0
20260506112523 15 280 0.0 0.0 0.00 0.28 0.00 31 1004.0
20260506111925 15 280 0.0 4.8 0.00 0.28 0.00 32 1004.0
20260506110724 15 278 0.0 0.0 0.00 0.28 0.00 30 1004.0
20260506110124 15 278 4.8 4.8 0.00 0.28 0.00 29 1004.0
20260506105520 15 324 4.8 4.8 0.00 0.28 0.00 30 1004.0
20260506103717 15 290 3.2 3.2 0.00 0.28 0.00 29 1004.0
20260506103118 15 314 4.8 4.8 0.00 0.28 0.00 28 1004.0
20260506101318 15 283 3.2 3.2 0.00 0.28 0.00 38 1004.0
20260506100716 14 289 3.2 3.2 0.00 0.28 0.00 38 1005.0
20260506095518 13 284 3.2 3.2 0.00 0.28 0.00 39 1005.0
20260506094916 13 283 0.0 0.0 0.00 0.28 0.00 41 1005.0
20260506093716 13 114 0.0 4.8 0.00 0.28 0.00 51 1005.0
20260506093115 13 121 4.8 4.8 0.00 0.28 0.00 52 1005.0
20260506092512 13 120 4.8 4.8 0.00 0.28 0.00 52 1005.0
20260506091306 13 120 0.0 3.2 0.00 0.28 0.00 54 1005.0
20260506090658 13 120 0.0 0.0 0.00 0.28 0.00 55 1005.0
20260506084850 13 120 0.0 4.8 0.00 0.28 0.00 61 1005.0
20260506083643 12 120 0.0 3.2 0.00 0.28 0.00 64 1005.0
20260506081838 12 120 0.0 0.0 0.00 0.28 0.00 64 1005.0
20260506080634 12 121 0.0 4.8 0.00 0.28 0.00 64 1005.0
20260506073025 10 187 0.0 0.0 0.00 0.28 0.00 63 1005.0
20260506072425 10 188 0.0 0.0 0.00 0.28 0.00 62 1005.0
20260506071225 10 188 3.2 3.2 0.00 0.28 0.00 61 1005.0
20260506060624 9 187 0.0 0.0 0.00 0.28 0.00 61 1005.0
20260506050625 7 187 0.0 0.0 0.00 0.28 0.00 59 1005.0
20260506044825 6 187 0.0 0.0 0.00 0.28 0.00 58 1006.0
20260506043019 6 187 0.0 3.2 0.00 0.28 0.00 57 1006.0
20260506042419 6 187 3.2 4.8 0.00 0.28 0.00 56 1006.0
20260506041819 6 187 3.2 3.2 0.00 0.28 0.00 56 1006.0
20260506040616 6 187 4.8 4.8 0.00 0.28 0.00 55 1006.0
20260506040014 6 187 0.0 0.0 0.00 0.28 0.00 56 1006.0
20260506035410 6 187 0.0 0.0 0.00 0.28 0.00 55 1006.0
20260506034808 6 187 0.0 0.0 0.00 0.28 0.00 55 1006.0
20260506034207 6 187 0.0 0.0 0.00 0.28 0.00 55 1006.0
20260506033000 6 188 3.2 3.2 0.00 0.28 0.00 54 1006.0
20260506031151 6 188 0.0 0.0 0.00 0.28 0.00 54 1006.0
20260506030548 6 188 0.0 0.0 0.00 0.28 0.00 54 1006.0
20260506024735 6 187 0.0 3.2 0.00 0.28 0.00 54 1007.0
20260506023532 6 188 0.0 0.0 0.00 0.28 0.00 54 1007.0
20260506022928 6 188 0.0 0.0 0.00 0.28 0.00 54 1007.0
20260506022325 6 187 0.0 0.0 0.00 0.28 0.00 54 1007.0
20260506021726 6 187 0.0 0.0 0.00 0.28 0.00 53 1007.0
20260506021122 6 186 0.0 0.0 0.00 0.28 0.00 53 1007.0
20260506020516 6 188 0.0 0.0 0.00 0.28 0.00 53 1007.0
20260506015913 6 188 0.0 0.0 0.00 0.28 0.00 52 1007.0
20260506015311 6 187 0.0 0.0 0.00 0.28 0.00 52 1007.0
20260506014104 6 187 0.0 0.0 0.00 0.28 0.00 52 1007.0
20260506013503 6 188 0.0 0.0 0.00 0.28 0.00 52 1007.0
20260506012857 6 187 0.0 0.0 0.00 0.28 0.00 52 1007.0
20260506012255 6 188 0.0 0.0 0.00 0.28 0.00 52 1007.0
20260506011051 6 187 0.0 0.0 0.00 0.28 0.00 51 1007.0
20260506010450 6 188 0.0 0.0 0.00 0.28 0.00 51 1007.0
20260506005846 6 188 0.0 4.8 0.00 0.28 0.00 50 1007.0
20260506005247 6 187 0.0 0.0 0.00 0.28 0.00 50 1007.0
20260506004645 6 188 0.0 0.0 0.00 0.28 0.00 50 1007.0
20260506004043 6 188 0.0 0.0 0.00 0.28 0.00 50 1007.0
20260506002840 6 187 3.2 3.2 0.00 0.28 0.00 49 1008.0
20260506002240 6 187 0.0 0.0 0.00 0.28 0.00 49 1007.0
20260506001640 6 187 0.0 4.8 0.00 0.28 0.00 49 1007.0
20260506001041 6 187 3.2 3.2 0.00 0.28 0.00 49 1007.0
20260506000440 6 187 4.8 4.8 0.00 0.28 0.00 48 1008.0